SK0QO-13 Galo SE current weather conditions

sailwx.info

Wind from 022

Air temperature 22.2° C
Dewpoint 9.4° C

Last reported at 2019-Jul-17 16:02 UTC.
Time now 2019-Jul-17 16:40 UTC

Location: N 59°21' E 018°10'.
View on Google Maps.

See reports from other nearby stations

  
Tides and Currents Weather Stations Pressure Air Temp Water Temp Dewpoint Dewpoint Depression Visibility Wind Speed Wind Dir Waves Ship Positions
date/time (UTC)wind fromknots sea level pressurealtimeterstation pressurevisibilityair tempwater tempwave heightnotes
2019-Jul-17 16:02 022 22.2
2019-Jul-17 15:52 157 22.2
2019-Jul-17 15:42 135 22.8
2019-Jul-17 15:32 180 22.8
2019-Jul-17 15:22 065 23.3
2019-Jul-17 15:12 022 23.3
2019-Jul-17 15:02 135 23.3
2019-Jul-17 14:52 146 23.9
2019-Jul-17 14:42 090 23.9
2019-Jul-17 14:22 168 23.9
2019-Jul-17 14:12 135 23.9
2019-Jul-17 14:02 150 23.9
2019-Jul-17 13:52 135 23.9
2019-Jul-17 13:42 135 24.4
2019-Jul-17 13:32 135 25.0
2019-Jul-17 13:22 155 25.0
2019-Jul-17 13:12 120 25.0
2019-Jul-17 13:02 045 25.6
2019-Jul-17 12:52 225 25.6
2019-Jul-17 12:42 180 25.0
2019-Jul-17 12:22 153 24.4
2019-Jul-17 12:12 145 23.9
2019-Jul-17 12:02 135 23.3
2019-Jul-17 11:52 145 22.8
2019-Jul-17 11:42 180 22.8
2019-Jul-17 11:22 180 22.2
2019-Jul-17 11:12 135 21.1
2019-Jul-17 11:02 180 21.1
2019-Jul-17 10:52 180 21.1
2019-Jul-17 10:42 270 20.6
2019-Jul-17 10:22 229 20.0
2019-Jul-17 10:12 270 19.4
2019-Jul-17 10:02 154 19.4
2019-Jul-17 09:42 135 19.4
2019-Jul-17 09:32 054 19.4
2019-Jul-17 09:22 225 19.4
2019-Jul-17 09:12 225 19.4
2019-Jul-17 09:02 166 19.4
2019-Jul-17 08:52 112 18.9
2019-Jul-17 08:42 18.9
2019-Jul-17 08:22 270 18.3
2019-Jul-17 08:12 090 17.8
2019-Jul-17 08:02 17.2
2019-Jul-17 07:52 17.2
2019-Jul-17 07:42 17.2
2019-Jul-17 07:21 16.7
2019-Jul-17 07:11 279 16.7
2019-Jul-17 07:01 16.7
2019-Jul-17 06:51 16.1
2019-Jul-17 06:41 16.1
2019-Jul-17 06:31 16.1
2019-Jul-17 06:21 16.1
2019-Jul-17 06:11 306 15.6
2019-Jul-17 06:01 270 16.1
2019-Jul-17 05:51 270 16.1
2019-Jul-17 05:41 15.6
2019-Jul-17 05:21 15.6
2019-Jul-17 05:11 270 15.0
2019-Jul-17 04:51 270 15.0
2019-Jul-17 04:41 270 15.0
2019-Jul-17 04:31 270 14.4
2019-Jul-17 04:21 270 14.4
2019-Jul-17 04:11 270 14.4
2019-Jul-17 04:01 270 14.4
2019-Jul-17 03:51 270 14.4
2019-Jul-17 03:41 270 13.9
2019-Jul-17 03:21 270 13.9
2019-Jul-17 03:11 270 13.9
2019-Jul-17 03:01 270 13.9
2019-Jul-17 02:51 270 13.9
2019-Jul-17 02:41 270 13.3
2019-Jul-17 02:21 270 13.3
2019-Jul-17 02:01 270 13.3
2019-Jul-17 01:51 270 13.3
2019-Jul-17 01:41 270 13.3
2019-Jul-17 01:21 270 13.3
2019-Jul-17 01:11 270 12.8
2019-Jul-17 01:01 225 12.8
2019-Jul-17 00:51 225 12.8
2019-Jul-17 00:41 225 12.8
2019-Jul-17 00:21 225 12.2
2019-Jul-17 00:11 225 12.2
2019-Jul-17 00:01 225 12.2
2019-Jul-16 23:51 135 12.2
2019-Jul-16 23:41 135 12.2
2019-Jul-16 23:21 135 12.2
2019-Jul-16 23:11 135 12.2
2019-Jul-16 23:01 135 12.2
2019-Jul-16 22:51 135 12.2
2019-Jul-16 22:41 135 12.2
2019-Jul-16 22:21 135 12.2
2019-Jul-16 22:11 135 12.2
2019-Jul-16 22:01 135 12.8
2019-Jul-16 21:51 135 12.8
2019-Jul-16 21:41 135 12.8
2019-Jul-16 21:11 135 12.8
2019-Jul-16 21:01 135 13.3
2019-Jul-16 20:51 135 13.3
2019-Jul-16 20:41 135 13.9
2019-Jul-16 20:31 135 13.9
2019-Jul-16 20:11 135 14.4
2019-Jul-16 20:01 135 15.0
2019-Jul-16 19:51 135 15.0
2019-Jul-16 19:41 090 15.6
2019-Jul-16 19:21 090 16.1
2019-Jul-16 19:11 090 16.1
2019-Jul-16 19:01 090 16.7
2019-Jul-16 18:51 090 16.7
2019-Jul-16 18:41 090 17.2
2019-Jul-16 18:21 090 17.8
2019-Jul-16 18:11 090 17.8
2019-Jul-16 18:01 090 17.8
2019-Jul-16 17:51 090 17.8
2019-Jul-16 17:41 090 17.8
2019-Jul-16 17:21 135 17.8
2019-Jul-16 17:11 090 18.3
2019-Jul-16 17:01 090 18.3
2019-Jul-16 16:51 090 18.3
2019-Jul-16 16:41 090 18.3
2019-Jul-16 16:21 045 18.3
2019-Jul-16 16:11 045 18.3
2019-Jul-16 16:01 225 18.9
2019-Jul-16 15:51 225 18.9
2019-Jul-16 15:41 225 18.9
2019-Jul-16 15:21 270 19.4
2019-Jul-16 15:11 135 19.4
2019-Jul-16 15:01 18.3
2019-Jul-16 14:51 045 17.8
2019-Jul-16 14:41 045 17.8
2019-Jul-16 14:21 18.3
2019-Jul-16 14:11 270 18.3
2019-Jul-16 14:01 270 18.3
2019-Jul-16 13:51 17.8
2019-Jul-16 13:41 045 17.2
2019-Jul-16 13:21 270 17.2
2019-Jul-16 13:11 270 17.2
2019-Jul-16 13:01 135 17.2
2019-Jul-16 12:51 180 17.2
2019-Jul-16 12:41 135 16.7
2019-Jul-16 12:31 180 16.7
2019-Jul-16 12:21 135 16.7
2019-Jul-16 12:11 225 17.2
2019-Jul-16 12:01 225 17.2
2019-Jul-16 11:51 225 17.8
2019-Jul-16 11:41 225 17.8
2019-Jul-16 11:31 135 17.8
2019-Jul-16 11:21 175 17.8
2019-Jul-16 11:11 198 17.2
2019-Jul-16 11:01 270 17.2
2019-Jul-16 10:51 270 17.2
2019-Jul-16 10:41 270 16.7
2019-Jul-16 10:21 306 16.7
2019-Jul-16 10:11 16.7
2019-Jul-16 10:01 022 16.1
2019-Jul-16 09:51 324 16.1
2019-Jul-16 09:41 270 16.1
2019-Jul-16 09:21 270 16.1
2019-Jul-16 09:01 090 16.1
2019-Jul-16 08:51 090 16.1
2019-Jul-16 08:41 16.7
2019-Jul-16 08:21 16.1
2019-Jul-16 08:11 16.1
2019-Jul-16 08:01 306 15.6
2019-Jul-16 07:51 15.6
2019-Jul-16 07:11 15.0
2019-Jul-16 07:00 15.0
2019-Jul-16 06:50 14.4
2019-Jul-16 06:40 270 14.4
2019-Jul-16 06:20 13.9
2019-Jul-16 06:10 351 13.9
2019-Jul-16 06:00 13.9
2019-Jul-16 05:50 13.9
2019-Jul-16 05:40 351 13.3
2019-Jul-16 05:20 13.3
2019-Jul-16 05:10 324 12.8
2019-Jul-16 05:00 270 12.8
2019-Jul-16 04:50 12.2
2019-Jul-16 04:40 270 12.2
2019-Jul-16 04:20 270 11.7
2019-Jul-16 04:10 11.7
2019-Jul-16 04:00 11.7
2019-Jul-16 03:50 11.1
2019-Jul-16 03:40 090 11.1
2019-Jul-16 03:20 045 10.6
2019-Jul-16 03:10 045 10.6
2019-Jul-16 03:00 270 10.6
2019-Jul-16 02:50 270 10.6
2019-Jul-16 02:40 090 10.6
2019-Jul-16 02:20 270 10.6
2019-Jul-16 02:10 10.6
2019-Jul-16 02:00 045 10.6
2019-Jul-16 01:50 10.6
2019-Jul-16 01:40 270 10.6
2019-Jul-16 01:20 270 11.1
2019-Jul-16 01:10 270 11.1
2019-Jul-16 01:00 270 11.7
2019-Jul-16 00:50 270 11.7
2019-Jul-16 00:40 270 11.7
2019-Jul-16 00:20 270 11.7
2019-Jul-16 00:10 045 11.7
2019-Jul-16 00:00 11.7
2019-Jul-15 23:50 11.7
2019-Jul-15 23:40 11.7
2019-Jul-15 23:20 270 11.7
2019-Jul-15 23:10 315 11.7
2019-Jul-15 23:00 12.2
2019-Jul-15 22:50 12.2
2019-Jul-15 22:40 270 12.2
2019-Jul-15 22:20 306 12.2
2019-Jul-15 22:10 297 12.2
2019-Jul-15 22:00 270 12.2
2019-Jul-15 21:50 297 12.8
2019-Jul-15 21:40 270 12.8
2019-Jul-15 21:20 270 12.8
2019-Jul-15 21:10 270 12.8
2019-Jul-15 21:00 270 12.8
2019-Jul-15 20:50 12.8
2019-Jul-15 20:40 12.8
2019-Jul-15 20:20 270 13.3
2019-Jul-15 20:10 270 13.3
2019-Jul-15 20:00 270 13.3
2019-Jul-15 19:50 270 13.3
2019-Jul-15 19:40 270 13.3
2019-Jul-15 19:20 13.3
2019-Jul-15 19:10 13.3
2019-Jul-15 19:00 13.3
2019-Jul-15 18:50 13.3
2019-Jul-15 18:20 270 13.3
2019-Jul-15 18:10 004 13.3
2019-Jul-15 18:00 270 13.3
2019-Jul-15 17:50 13.9
2019-Jul-15 17:40 13.9
2019-Jul-15 17:20 315 13.9
2019-Jul-15 17:10 288 13.9
2019-Jul-15 17:00 270 13.9
2019-Jul-15 16:50 270 14.4
2019-Jul-15 16:40 270 14.4
2019-Jul-15 16:20 297 15.0
2019-Jul-15 16:10 279 15.0
2019-Jul-15 16:00 14.4